Location: Izdebno
(52.6670°N, 16.2170°E)
Time: 18:42:43
(UTC+01:00)

Transit 2A Rocket - All Passes

Search period start: 07 February 2023 00:00
Search period end: 17 February 2023 00:00
Orbit: 585 x 915 km, 66.7° (Epoch: 07 February)

Date Brightness Start Highest point End Pass type
(mag) Time Alt. Az. Time Alt. Az. Time Alt. Az.
07 Feb - 00:18:49 10° WSW 00:23:52 46° NW 00:29:24 10° NE visible
07 Feb - 02:03:34 10° WNW 02:07:53 22° NNW 02:12:25 10° NE visible
07 Feb - 03:48:00 10° NW 03:52:27 22° NNE 03:57:04 10° ENE visible
07 Feb - 05:30:55 10° NW 05:36:32 42° NE 05:42:20 10° ESE visible
07 Feb - 07:13:33 10° NW 07:19:29 62° WSW 07:25:30 10° SSE daylight
07 Feb - 08:58:00 10° WNW 09:01:03 14° WSW 09:04:06 10° SW daylight
07 Feb - 21:54:00 10° S 21:58:23 30° ESE 22:03:09 10° NE night (unlit)
07 Feb - 23:35:26 10° SW 23:40:36 64° NW 23:46:18 10° NE night (unlit)
08 Feb - 01:19:46 10° WNW 01:24:17 25° NNW 01:29:06 10° NE visible
08 Feb - 03:04:34 10° NW 03:08:49 21° N 03:13:14 10° NE visible
08 Feb - 04:47:50 10° NW 04:53:08 33° NNE 04:58:37 10° E visible
08 Feb - 06:30:24 10° NW 06:36:26 88° SW 06:42:34 10° SE visible
08 Feb - 08:13:53 10° WNW 08:18:24 22° WSW 08:22:57 10° SSW daylight
08 Feb - 21:12:08 10° SSE 21:15:41 19° ESE 21:19:28 10° ENE night (unlit)
08 Feb - 22:52:17 10° SW 22:57:27 90° SE 23:03:11 10° NE night (unlit)
09 Feb - 00:36:01 10° W 00:40:47 31° NNW 00:45:55 10° NE visible
09 Feb - 02:20:59 10° NW 02:25:10 20° N 02:29:32 10° NE visible
09 Feb - 04:04:41 10° NW 04:09:39 27° NNE 04:14:48 10° E visible
09 Feb - 05:47:19 10° NW 05:53:17 68° NE 05:59:23 10° SE visible
09 Feb - 07:30:18 10° NW 07:35:38 33° WSW 07:41:01 10° S daylight
09 Feb - 20:31:24 10° ESE 20:33:06 12° E 20:34:51 10° E night (unlit)
09 Feb - 22:09:23 10° SSW 22:14:25 60° ESE 22:20:00 10° NE night (unlit)
09 Feb - 23:52:22 10° WSW 23:57:21 39° NW 00:02:47 10° NE night (unlit)
10 Feb - 01:37:17 10° WNW 01:41:31 21° N 01:45:59 10° NE visible
10 Feb - 03:21:27 10° NW 03:26:05 24° NNE 03:30:54 10° ENE visible
10 Feb - 05:04:14 10° NW 05:10:02 50° NE 05:15:58 10° ESE visible
10 Feb - 06:46:58 10° NW 06:52:46 49° WSW 06:58:36 10° SSE visible
10 Feb - 08:33:02 10° W 08:34:06 10° W 08:35:07 10° WSW daylight
10 Feb - 21:26:48 10° S 21:31:32 39° ESE 21:36:42 10° NE night (unlit)
10 Feb - 23:08:52 10° WSW 23:14:01 52° NW 23:19:41 10° NE night (unlit)
11 Feb - 00:53:29 10° WNW 00:57:55 24° NNW 01:02:36 10° NE visible
11 Feb - 02:38:06 10° NW 02:42:29 21° N 02:47:01 10° ENE visible
11 Feb - 04:21:09 10° NW 04:26:41 38° NE 04:32:21 10° ESE visible
11 Feb - 06:03:46 10° NW 06:09:46 72° SW 06:15:52 10° SSE visible
11 Feb - 07:47:43 10° WNW 07:51:30 17° WSW 07:55:17 10° SW daylight
11 Feb - 20:44:36 10° SSE 20:48:45 25° ESE 20:53:14 10° ENE night (unlit)
11 Feb - 22:25:34 10° SW 22:30:47 74° NW 22:36:34 10° NE night (unlit)
12 Feb - 00:09:41 10° W 00:14:21 28° NNW 00:19:21 10° NE visible
12 Feb - 01:54:35 10° NW 01:58:50 21° N 02:03:14 10° NE visible
12 Feb - 03:38:02 10° NW 03:43:14 31° NNE 03:48:35 10° E visible
12 Feb - 05:20:38 10° NW 05:26:40 82° NE 05:32:49 10° SE visible
12 Feb - 07:03:52 10° NW 07:08:48 26° WSW 07:13:44 10° SSW daylight
12 Feb - 20:03:02 10° SE 20:06:06 16° ESE 20:09:19 10° ENE night (unlit)
12 Feb - 21:42:30 10° SSW 21:47:41 77° SE 21:53:25 10° NE night (unlit)
12 Feb - 23:25:57 10° W 23:30:51 34° NNW 23:36:09 10° NE night (unlit)
13 Feb - 01:10:56 10° NW 01:15:10 21° N 01:19:36 10° NE visible
13 Feb - 02:54:51 10° NW 02:59:43 26° NNE 03:04:44 10° ENE visible
13 Feb - 04:37:32 10° NW 04:43:29 59° NE 04:49:32 10° ESE visible
13 Feb - 06:20:24 10° NW 06:25:59 39° WSW 06:31:35 10° S visible
13 Feb - 20:59:43 10° SSW 21:04:42 51° ESE 21:10:12 10° NE night (unlit)
13 Feb - 22:42:21 10° WSW 22:47:27 44° NW 22:53:01 10° NE night (unlit)
14 Feb - 00:27:11 10° WNW 00:31:32 22° NNW 00:36:07 10° NE visible
14 Feb - 02:11:33 10° NW 02:16:07 23° NNE 02:20:50 10° ENE visible
14 Feb - 03:54:27 10° NW 04:00:10 44° NE 04:06:01 10° ESE visible
14 Feb - 05:37:08 10° NW 05:43:03 58° WSW 05:49:01 10° SSE visible
14 Feb - 07:21:53 10° WNW 07:24:32 13° WSW 07:27:11 10° SW daylight
14 Feb - 20:17:16 10° S 20:21:51 33° ESE 20:26:50 10° NE night (unlit)
14 Feb - 21:58:56 10° SW 22:04:09 60° NW 22:09:55 10° NE night (unlit)
14 Feb - 23:43:21 10° WNW 23:47:56 25° NNW 23:52:46 10° NE night (unlit)
15 Feb - 01:28:08 10° NW 01:32:28 21° N 01:36:58 10° NE visible
15 Feb - 03:11:21 10° NW 03:16:46 35° NNE 03:22:20 10° E visible
15 Feb - 04:53:57 10° NW 05:00:01 83° SW 05:06:08 10° SSE visible
15 Feb - 06:37:33 10° WNW 06:41:54 21° WSW 06:46:15 10° SSW visible
15 Feb - 19:35:17 10° SSE 19:39:07 21° ESE 19:43:13 10° ENE night (unlit)
15 Feb - 21:15:43 10° SW 21:20:58 85° NW 21:26:47 10° NE night (unlit)
15 Feb - 22:59:34 10° W 23:04:23 30° NNW 23:09:32 10° NE night (unlit)
16 Feb - 00:44:33 10° NW 00:48:48 21° N 00:53:14 10° NE visible
16 Feb - 02:28:12 10° NW 02:33:17 28° NNE 02:38:30 10° E visible
16 Feb - 04:10:49 10° NW 04:16:52 72° NE 04:22:59 10° SE visible
16 Feb - 05:53:53 10° NW 05:59:09 31° WSW 06:04:24 10° S visible
16 Feb - 18:54:09 10° SE 18:56:31 13° ESE 18:58:57 10° ENE visible
16 Feb - 20:32:45 10° SSW 20:37:55 65° ESE 20:43:36 10° NE visible
16 Feb - 22:15:53 10° W 22:20:55 38° NNW 22:26:22 10° NE night (unlit)
